Total_Precipitation_Accumulation
0.00 0.00 0.00 0.05 0.20 0.49 0.27 0.21 0.92 2.43 2.76 2.29 2.52 1.36 1.05 1.97 1.94 1.64 0.84 0.27 0.13 0.06 0.09 0.05 0.02 0.02 0.01 0.00 0.00 0.05 0.27 0.34 0.23 0.35 0.41 0.40 0.53 0.68 0.59 0.50 0.48 0.44 0.64 0.78
0.00 0.00 0.00 0.03 0.12 0.07 0.08 0.10 0.43 2.11 3.03 2.73 2.75 1.96 1.39 1.78 1.92 1.37 1.03 0.65 0.32 0.19 0.09 0.04 0.03 0.02 0.01 0.00 0.01 0.05 0.40 0.45 0.19 0.32 0.36 0.33 0.52 0.55 0.33 0.28 0.21 0.20 0.34 0.46
0.00 0.00 0.00 0.02 0.06 0.01 0.00 0.03 0.15 1.15 1.54 2.01 2.31 2.68 2.19 1.95 2.15 1.72 1.17 0.74 0.48 0.47 0.17 0.05 0.01 0.02 0.01 0.00 0.00 0.02 0.21 0.55 0.41 0.37 0.44 0.78 0.98 1.06 0.93 0.57 0.52 0.25 0.27 0.32
0.00 0.00 0.00 0.00 0.01 0.00 0.01 0.03 0.11 0.67 1.11 2.74 1.51 2.01 1.83 1.21 1.67 2.75 1.32 1.40 0.67 0.59 0.29 0.18 0.04 0.01 0.01 0.00 0.03 0.01 0.15 0.27 0.20 0.39 0.29 0.46 0.70 0.95 0.74 0.33 0.31 0.34 0.38 0.38
0.00 0.00 0.00 0.00 0.00 0.00 0.01 0.05 0.09 0.47 0.39 0.75 0.86 1.34 1.33 0.79 1.64 2.50 1.65 0.87 0.71 0.37 0.27 0.27 0.21 0.08 0.06 0.03 0.01 0.00 0.09 0.33 0.42 0.39 0.78 0.70 0.49 0.89 0.41 0.28 0.52 0.56 0.67 0.40
0.00 0.00 0.00 0.00 0.00 0.00 0.00 0.03 0.09 0.14 0.35 0.32 0.34 0.87 0.66 0.68 1.09 1.84 0.85 0.61 0.56 0.38 0.29 0.22 0.28 0.18 0.21 0.10 0.01 0.02 0.02 0.28 0.40 0.32 0.71 1.02 0.93 0.65 0.68 0.67 0.68 0.41 0.28 0.18
0.00 0.00 0.00 0.00 0.00 0.03 0.00 0.02 0.07 0.16 0.27 0.30 0.09 0.43 0.43 0.35 0.61 1.70 1.42 0.94 0.79 0.77 0.36 0.20 0.21 0.51 0.57 0.20 0.11 0.02 0.01 0.05 0.11 0.19 0.25 0.63 1.02 1.30 1.41 0.61 0.27 0.37 0.22 0.23
0.00 0.00 0.00 0.00 0.00 0.01 0.00 0.00 0.00 0.06 0.09 0.06 0.15 0.48 0.38 0.20 0.22 0.40 1.19 1.17 1.11 1.13 0.83 0.33 0.13 0.49 0.48 0.34 0.46 0.14 0.01 0.02 0.06 0.13 0.28 0.57 0.75 0.55 0.42 0.27 0.30 0.37 0.56 0.35
0.00 0.00 0.00 0.00 0.00 0.00 0.00 0.00 0.02 0.02 0.01 0.02 0.23 0.48 0.47 0.16 0.26 0.19 0.33 0.88 1.35 1.62 1.62 0.90 0.66 0.46 0.34 0.43 0.45 0.17 0.08 0.02 0.02 0.05 0.32 0.44 0.41 0.44 0.46 0.52 0.34 0.40 0.50 0.84
0.00 0.00 0.00 0.00 0.00 0.00 0.01 0.02 0.01 0.02 0.02 0.03 0.34 0.68 1.11 1.10 0.90 0.46 0.20 0.22 0.61 1.15 1.89 1.19 1.43 1.35 0.72 0.85 0.62 0.57 0.47 0.26 0.20 0.16 0.14 0.30 0.34 0.34 0.44 0.52 0.52 0.51 0.58 0.91
0.01 0.00 0.01 0.00 0.00 0.01 0.01 0.01 0.00 0.02 0.04 0.04 0.38 1.13 0.81 0.78 0.50 0.63 0.46 0.26 0.28 0.53 1.17 1.25 1.40 1.84 1.10 1.95 2.14 1.79 1.36 0.67 0.37 0.37 0.31 0.33 0.37 0.31 0.33 0.39 0.70 0.79 0.60 0.57
0.00 0.00 0.01 0.03 0.01 0.02 0.01 0.01 0.00 0.02 0.14 0.04 0.08 0.73 0.42 0.64 0.76 0.74 0.45 0.48 0.30 0.23 0.67 1.60 1.78 1.73 1.59 2.60 3.38 3.76 3.39 2.26 1.11 0.77 0.49 0.41 0.42 0.48 0.44 0.43 0.57 0.62 0.79 0.59
0.03 0.03 0.01 0.05 0.04 0.03 0.03 0.01 0.03 0.03 0.05 0.07 0.19 0.34 0.27 0.21 0.37 0.44 0.49 0.45 0.32 0.37 0.42 0.86 1.64 2.01 1.66 2.29 4.47 4.96 4.18 3.47 2.28 1.39 0.93 0.73 0.71 0.63 0.43 0.40 0.56 0.59 0.69 0.65
0.12 0.04 0.02 0.18 0.12 0.06 0.03 0.01 0.05 0.08 0.12 0.07 0.06 0.15 0.18 0.11 0.30 0.33 0.96 1.05 0.68 0.48 0.55 0.73 1.19 1.73 2.00 2.12 3.20 4.08 4.97 3.99 3.89 2.60 2.03 1.57 1.22 1.17 0.97 0.87 0.86 0.76 0.99 0.73
0.10 0.02 0.02 0.09 0.06 0.15 0.18 0.03 0.13 0.18 0.22 0.09 0.11 0.12 0.13 0.08 0.21 0.41 0.79 1.33 1.30 1.03 0.51 0.76 0.98 1.56 1.83 1.90 2.19 2.43 3.59 4.44 5.22 5.09 5.16 3.92 3.27 3.12 2.55 1.97 1.67 1.50 1.25 1.13
0.10 0.03 0.02 0.05 0.05 0.09 0.23 0.05 0.03 0.08 0.07 0.07 0.03 0.09 0.30 0.29 0.73 1.09 1.53 2.15 1.91 1.99 0.95 0.70 0.95 1.36 1.87 1.96 1.85 2.14 2.37 2.97 3.36 3.33 3.72 5.04 6.15 4.60 4.47 3.97 3.10 2.57 2.37 1.97
0.16 0.14 0.11 0.09 0.18 0.10 0.08 0.12 0.16 0.25 0.16 0.19 0.19 0.12 0.39 0.26 0.46 0.43 0.47 0.76 0.99 1.35 2.18 1.81 1.36 1.27 1.46 1.98 2.21 2.25 2.93 3.18 3.00 2.76 2.81 3.11 3.98 4.74 4.54 4.46 3.88 3.87 3.42 2.69
0.07 0.13 0.20 0.12 0.26 0.26 0.05 0.02 0.12 0.14 0.29 0.51 0.73 0.73 0.49 0.84 0.40 0.28 0.28 0.41 0.63 0.82 1.68 2.84 2.51 1.58 1.62 1.71 2.01 2.43 2.90 2.76 2.77 2.97 2.77 2.80 2.82 2.99 3.12 3.47 4.09 4.14 4.29 4.17
0.03 0.13 0.21 0.12 0.14 0.22 0.18 0.10 0.02 0.09 0.29 0.56 0.55 0.32 0.62 0.94 0.62 0.32 0.24 0.26 0.53 0.48 0.61 0.93 1.62 1.73 3.04 2.84 2.69 2.24 2.61 3.04 2.74 2.49 2.68 2.62 2.84 2.82 2.77 2.93 2.93 2.92 3.31 3.69
0.11 0.16 0.32 0.31 0.28 0.42 0.36 0.14 0.04 0.03 0.51 0.33 0.75 0.64 0.52 0.90 0.96 0.68 0.39 0.25 0.27 0.44 0.52 0.52 0.50 0.54 0.64 0.80 1.34 1.75 1.95 2.19 2.62 2.92 2.72 2.51 2.70 2.78 2.61 3.32 3.28 2.91 2.74 2.57
0.40 0.50 0.45 0.39 0.39 0.36 0.39 0.20 0.09 0.23 0.48 1.21 1.34 1.06 0.63 1.01 1.54 1.50 1.42 0.81 0.52 0.44 0.42 0.42 0.43 0.31 0.28 0.45 0.66 0.51 0.73 0.91 1.15 1.36 2.30 2.17 1.78 2.21 2.47 2.54 2.36 2.01 1.92 2.05
0.81 0.85 0.87 0.57 0.50 0.52 0.40 0.54 0.51 0.41 0.31 0.62 1.02 1.05 0.92 0.86 1.21 1.35 1.00 0.76 0.66 0.74 0.45 0.59 0.57 0.34 0.23 0.24 0.36 0.37 0.46 0.61 0.76 0.96 0.86 1.64 1.68 1.61 1.80 2.91 3.68 3.43 2.86 2.72
1.02 0.88 0.82 0.73 0.66 0.48 0.45 0.74 0.57 0.24 0.31 0.70 1.06 0.98 0.72 0.72 0.70 0.74 0.62 0.71 0.59 0.54 0.55 0.63 1.23 0.54 0.59 0.46 0.39 0.57 0.64 0.54 0.58 0.69 1.04 1.25 1.71 1.87 2.47 2.67 2.78 3.17 3.41 3.49
0.89 0.67 0.58 0.59 0.52 0.44 0.44 0.78 0.82 0.53 0.23 0.15 0.27 0.34 0.45 0.65 0.71 0.70 0.77 0.98 0.93 0.83 0.57 0.47 0.74 0.72 0.73 0.94 0.83 0.79 0.89 1.11 1.40 1.46 1.16 1.09 1.26 1.50 1.37 1.62 2.08 1.76 1.28 1.38
1.73 1.13 0.75 0.61 0.70 0.70 0.55 0.68 1.03 0.87 0.48 0.23 0.21 0.31 0.30 0.30 0.30 0.36 0.53 0.65 0.68 0.89 0.99 0.93 1.28 1.31 1.05 1.20 1.29 1.30 1.37 1.33 1.20 1.00 1.08 1.16 1.28 1.35 1.49 1.58 1.60 1.28 1.18 1.19
2.02 2.09 1.38 1.13 1.10 1.47 0.99 0.75 0.76 0.95 0.82 0.57 0.35 0.30 0.29 0.28 0.16 0.21 0.36 0.83 1.43 1.42 1.61 1.32 1.34 1.16 1.22 1.15 1.33 1.44 1.76 1.75 1.72 1.66 1.70 1.83 2.14 2.20 2.42 2.31 2.08 2.03 2.03 1.84